Temperature
23 21 19 20 20 21 21 21 22 23 23 23 23 23 23 25 24 24 24 23 23 23 23 22 22 22 22 21 21 21 20 20 19 19 18 17 16 16 16 16 16 16 16 16
20 20 21 21 22 21 23 23 23 23 24 24 24 24 23 22 23 24 23 22 22 22 22 21 21 21 21 21 21 20 20 20 19 19 18 17 17 17 16 16 15 15 15 15
20 21 23 23 24 24 24 22 22 22 22 22 22 21 22 23 23 23 23 22 22 22 22 21 21 20 20 20 20 20 19 19 18 18 17 17 16 16 15 15 14 14 14 14
21 23 23 25 24 24 22 22 22 21 20 19 21 18 19 20 20 21 19 21 22 21 20 20 20 20 20 20 19 19 18 17 17 17 16 15 15 14 13 12 12 12 12 12
21 23 24 24 24 24 22 22 22 22 20 19 19 18 20 20 19 18 17 20 20 19 19 19 19 19 20 19 17 17 17 16 15 15 14 14 13 12 11 11 11 12 12 12
22 23 24 24 24 23 22 21 18 16 16 17 19 18 17 17 18 18 17 18 19 18 18 17 17 17 16 15 15 15 15 14 13 13 13 13 13 13 13 12 12 13 13 12
22 22 22 24 22 22 19 18 16 17 16 17 18 18 17 17 17 17 16 16 16 16 16 16 15 15 14 14 14 14 13 13 12 12 12 12 12 12 12 12 11 11 11 10
19 17 21 21 22 21 20 18 16 16 16 16 19 17 16 19 17 15 14 13 14 14 14 14 14 13 13 13 13 13 13 13 13 12 11 11 11 11 10 10 10 9 9 9
19 20 21 21 22 21 19 19 18 16 16 15 16 18 19 15 14 13 13 14 14 13 13 13 13 13 13 13 13 14 14 14 12 11 10 10 11 11 10 10 9 8 8 8
19 18 20 21 21 20 19 19 14 17 15 14 16 16 14 13 14 13 12 12 13 13 14 14 14 14 14 14 14 13 12 12 11 11 10 10 10 9 9 9 8 8 8 7
18 18 17 19 19 19 18 17 17 16 15 14 14 14 13 11 12 11 11 12 12 13 12 12 12 12 12 12 11 11 11 10 10 9 9 9 9 8 8 8 8 7 6 4
15 14 16 17 18 18 18 17 15 14 15 14 13 11 10 10 10 10 11 11 12 12 11 11 11 11 11 10 10 10 9 9 9 9 9 8 8 8 8 7 6 4 3 3
16 14 14 15 16 15 15 15 14 13 12 13 12 9 10 10 10 10 10 10 10 10 9 9 9 10 9 9 9 9 9 9 8 8 8 8 7 7 6 5 3 3 2 2
14 12 13 13 14 14 13 13 14 13 11 12 12 9 9 9 8 9 9 9 10 9 9 9 9 9 8 8 8 8 8 8 7 7 7 6 6 4 3 2 1 1 1 1
11 12 13 13 13 14 13 13 13 13 13 11 11 9 8 8 8 8 9 9 9 9 9 9 9 8 8 8 8 8 8 7 6 5 4 3 2 2 1 1 0 0 1 1
11 12 13 12 13 12 12 12 13 12 12 11 9 8 9 9 9 8 8 8 9 9 8 8 8 7 7 7 7 6 6 5 3 2 1 1 -0 -0 -0 -0 -0 0 1 1
11 9 10 10 11 11 10 11 11 9 9 9 7 7 7 7 8 8 8 9 8 8 7 7 7 6 6 6 5 5 4 2 1 0 -0 -1 -1 -1 -1 -0 1 1 1 1
9 8 8 8 10 8 11 11 10 8 8 8 7 7 7 8 9 9 9 9 8 7 7 6 5 5 4 4 3 2 1 -0 -1 -1 -1 -1 -1 -1 0 1 1 1 1 0
9 8 8 7 7 9 10 9 9 9 6 8 7 8 8 8 8 8 9 8 7 6 6 5 5 4 3 2 1 -1 -1 -1 -1 -1 -1 -1 -1 0 1 1 1 1 0 0
8 8 7 6 7 7 8 9 10 10 6 8 8 8 8 8 5 6 8 7 6 5 5 5 4 2 1 -1 -1 -1 -1 -1 -1 -1 -0 0 1 1 1 1 1 0 1 1
8 8 7 6 6 6 8 9 10 7 7 9 9 9 9 8 7 8 7 7 6 5 4 3 2 0 -1 -1 -1 -1 -1 -0 -0 0 1 1 1 1 1 1 1 1 1 1
8 7 6 6 7 5 9 8 7 7 10 9 9 9 9 9 9 8 7 5 4 4 3 1 -0 -1 -1 -1 -1 -0 0 0 1 1 1 1 1 1 2 2 2 2 2 1
6 7 6 7 7 8 9 9 10 10 10 9 8 8 8 8 7 5 4 4 3 3 1 -0 -1 -0 -0 -1 -0 0 0 1 1 1 1 2 2 2 2 2 2 2 2 1
8 8 7 7 7 9 9 9 10 9 9 8 8 8 8 8 6 5 4 4 2 1 -0 -1 -0 1 -0 0 1 0 1 1 1 2 2 2 2 2 2 2 1 2 2 2
7 8 6 7 8 9 9 9 9 9 8 8 7 7 6 5 5 4 3 2 0 -1 -1 -0 1 0 0 1 1 1 1 1 2 2 3 3 3 3 3 2 2 2 2 2
7 7 5 6 8 7 9 9 9 9 8 7 7 7 5 4 3 3 1 -0 -1 -1 -1 0 1 1 1 2 2 2 2 2 2 3 3 3 3 3 3 2 2 2 2 1
Wind_Speed
3 1 7 11 8 11 7 7 7 7 4 5 6 5 7 6 6 7 6 9 12 9 8 10 9 11 11 10 11 10 10 9 6 3 3 3 3 3 3 4 9 10 12 12
4 8 14 9 10 10 6 1 5 5 7 6 3 1 4 3 6 10 10 11 12 10 10 11 11 9 8 9 10 10 11 11 9 5 4 3 3 1 2 3 8 11 8 5
8 13 9 6 3 3 5 4 3 4 8 8 7 7 7 9 3 5 10 10 8 10 11 9 7 4 3 7 8 5 3 2 3 4 3 3 4 5 5 6 7 8 10 8
8 10 7 4 1 2 2 4 7 6 5 2 3 2 8 7 5 1 5 7 7 8 10 11 11 10 6 2 8 10 10 10 9 10 10 10 7 5 4 3 5 7 10 11
7 3 2 2 2 4 4 3 5 4 4 2 2 1 8 8 6 2 9 8 8 9 13 14 15 16 15 13 13 13 14 13 10 10 9 9 7 4 3 3 5 5 6 10
6 3 3 5 3 5 4 6 8 6 5 3 4 3 7 7 6 1 5 7 10 14 15 15 14 16 15 14 12 11 13 11 9 9 8 6 4 1 1 1 3 4 5 5
4 6 7 2 3 5 9 9 6 7 5 3 8 3 3 7 2 11 10 10 14 15 15 15 14 14 14 14 12 10 10 9 7 5 4 3 2 2 3 3 4 5 5 6
1 3 6 8 4 4 5 8 4 2 3 5 9 4 5 2 11 15 14 14 17 15 13 14 12 12 11 11 9 8 8 6 4 3 2 2 3 2 3 4 5 7 6 7
5 5 1 6 6 6 3 2 4 5 0 1 4 3 3 10 11 12 12 12 10 9 9 9 9 10 9 8 6 6 6 6 4 1 1 2 1 1 3 4 4 6 7 6
4 2 2 3 5 7 3 1 2 1 2 1 3 1 2 7 7 9 9 10 10 9 8 6 5 6 5 4 4 5 2 1 3 7 7 5 6 7 7 7 7 6 6 5
4 2 3 4 3 1 6 5 1 3 5 5 2 4 4 5 5 7 9 9 8 7 6 6 4 4 7 6 5 3 5 8 9 8 7 8 8 8 9 9 9 7 6 7
4 5 0 4 4 1 5 4 4 3 1 4 6 3 5 4 7 9 8 6 5 7 7 8 7 6 5 4 3 5 6 6 6 6 6 7 8 9 10 9 8 8 8 8
3 4 2 5 5 7 6 7 6 3 3 1 5 4 2 6 8 10 11 12 12 11 11 10 10 9 7 8 7 6 6 6 6 7 8 9 9 10 10 9 9 9 10 10
5 4 5 6 2 2 4 6 6 5 1 0 4 9 4 2 1 5 8 8 8 7 6 6 7 6 5 5 5 5 5 5 6 7 8 9 9 9 10 9 9 10 11 11
5 4 3 2 3 4 4 7 6 2 3 4 5 9 7 5 4 4 4 3 2 1 2 4 4 4 5 5 6 6 5 6 7 7 8 9 9 9 9 9 9 11 12 11
4 4 3 2 5 7 5 8 8 5 2 1 9 7 2 2 1 1 3 3 1 3 2 3 4 5 6 7 7 7 7 7 8 8 10 10 8 7 8 10 10 11 9 8
3 5 4 1 4 5 3 3 4 7 8 5 5 1 1 3 4 4 2 4 5 2 6 5 4 4 5 6 6 6 7 8 8 9 11 10 8 9 10 10 11 8 6 6
6 5 4 2 3 2 3 4 12 12 8 8 7 2 1 2 5 4 4 6 4 4 5 3 4 6 6 7 9 10 9 10 11 11 11 10 10 10 10 11 6 3 2 3
7 7 4 4 3 3 1 4 2 5 4 2 2 1 2 3 2 5 6 3 5 3 2 3 5 5 6 7 9 11 11 10 11 11 10 11 10 9 10 7 3 2 3 4
6 7 6 4 3 5 3 3 3 3 1 4 2 3 4 2 4 5 1 6 5 3 2 4 5 5 7 8 9 10 11 10 10 11 10 9 8 7 6 4 3 3 3 4
5 4 5 5 4 5 4 4 1 2 5 5 4 5 5 4 7 2 5 5 3 1 1 3 6 6 7 8 9 9 10 9 9 9 8 7 6 4 3 3 3 4 5 5
7 5 5 4 3 5 5 2 3 5 4 5 4 4 5 6 3 4 5 3 1 1 2 5 6 6 6 7 7 8 8 8 7 6 5 5 5 5 5 6 6 5 5 7
3 4 5 4 6 4 4 6 5 6 5 2 1 3 3 3 4 4 1 1 3 3 4 5 5 6 6 6 6 7 9 8 6 5 6 6 6 6 7 7 7 6 7 6
2 1 3 2 3 4 5 4 4 4 3 4 4 5 7 7 5 3 1 1 4 4 4 4 5 5 5 6 6 7 9 7 6 6 6 6 6 7 8 7 6 6 6 6
3 1 2 1 3 1 4 3 3 4 6 7 8 5 5 6 4 2 2 4 5 4 4 4 3 5 6 7 8 8 7 6 5 4 5 6 6 6 6 6 5 5 4 4
2 3 4 4 5 4 4 4 2 3 5 8 9 6 6 5 3 4 4 3 3 3 3 3 3 4 5 7 8 8 7 6 3 2 3 3 4 4 5 5 6 5 7 12
Wind_Direction
307 238 247 249 223 243 236 241 264 298 356 90 133 160 204 219 220 226 173 131 115 106 123 136 146 164 166 167 168 171 167 177 166 157 164 165 192 203 224 225 240 247 246 246
334 265 251 250 258 245 214 318 335 335 19 70 86 341 317 259 225 211 168 165 149 133 115 142 157 165 173 175 178 176 175 181 188 182 179 164 162 125 33 25 18 7 352 360
203 252 259 211 255 18 24 42 50 51 7 30 40 344 320 290 298 202 173 155 142 140 125 112 111 107 205 206 199 175 148 92 28 27 41 49 54 53 37 28 12 5 8 6
236 260 205 187 258 83 65 73 75 68 67 359 65 283 269 275 330 352 106 128 132 102 85 72 70 61 22 360 71 63 66 63 51 55 64 60 57 58 39 5 343 337 343 329
285 264 205 203 208 116 166 128 80 56 58 4 339 113 292 348 354 33 126 132 107 92 79 70 61 60 55 60 70 70 68 64 59 62 71 76 66 39 3 350 332 330 319 311
255 252 245 215 138 117 96 51 34 43 56 7 312 324 316 337 295 16 94 94 85 83 82 78 73 71 66 66 68 67 70 63 52 47 40 45 54 68 53 332 305 305 287 286
330 349 340 302 123 40 65 58 19 3 16 284 306 334 291 300 25 104 90 69 67 65 61 63 62 64 62 58 54 52 58 58 50 49 37 34 44 51 49 4 327 326 315 320
140 352 9 15 59 111 92 111 143 211 246 286 311 286 204 286 69 82 83 82 81 80 75 74 74 78 76 74 72 77 88 98 90 75 51 35 50 29 7 5 337 317 306 299
169 177 93 52 30 68 38 329 159 146 134 291 294 317 17 37 56 77 82 79 81 90 92 90 92 98 107 115 131 131 127 118 106 106 292 281 275 357 327 317 278 278 285 305
156 189 9 351 41 46 66 241 330 319 128 293 312 354 8 52 46 33 43 52 42 46 61 74 92 111 120 131 121 99 90 56 7 1 357 357 354 340 320 302 312 320 313 317
83 96 314 15 63 29 11 3 42 162 150 167 161 46 53 80 43 55 49 59 62 68 60 55 41 13 21 34 61 55 15 17 18 17 8 3 348 336 331 329 328 314 306 312
69 103 348 288 288 152 123 65 61 115 232 159 132 83 18 53 45 63 57 55 59 73 63 45 36 40 55 46 43 32 25 39 28 10 358 344 331 333 332 326 317 311 307 301
101 99 64 333 340 15 47 45 50 73 72 118 120 165 337 14 19 27 39 38 42 50 37 23 13 12 24 28 39 41 32 16 3 356 342 326 326 328 322 314 313 309 306 306
90 101 142 172 162 350 359 14 43 72 84 279 154 143 211 215 6 28 60 66 54 47 31 26 17 15 25 29 26 14 350 350 345 334 327 319 316 315 307 298 299 302 306 307
87 109 117 102 50 39 10 355 356 358 224 220 172 134 182 185 154 149 159 150 103 32 25 17 355 354 1 356 351 342 331 335 329 313 301 289 284 290 294 288 298 306 308 311
67 112 103 36 26 32 2 325 310 316 320 105 108 106 118 113 132 197 205 202 262 290 94 51 19 18 358 344 337 333 329 320 309 296 288 281 280 298 302 303 311 309 312 317
90 102 108 153 25 44 359 342 59 66 30 72 103 117 14 7 328 302 246 286 319 29 112 82 37 353 335 331 323 305 299 299 297 297 303 310 318 311 310 310 311 318 324 333
114 103 114 137 69 200 183 95 101 96 66 74 100 149 239 294 296 269 294 350 31 85 88 56 347 340 344 341 332 316 308 310 311 312 314 320 314 312 311 310 314 319 319 337
131 126 119 137 170 260 83 20 62 102 83 82 118 221 259 286 328 317 314 70 125 121 78 23 2 347 335 330 323 320 320 323 319 318 322 315 312 311 310 314 311 322 324 309
99 109 121 134 158 233 217 298 324 74 230 272 296 290 291 342 333 282 305 112 99 61 45 20 354 336 328 326 324 325 322 318 317 318 313 307 308 306 311 323 345 343 316 305
121 112 148 159 182 243 213 244 292 149 237 240 233 241 245 224 239 224 116 110 100 75 37 353 347 338 332 322 318 313 314 316 316 315 317 317 321 337 338 337 342 332 332 344
159 154 170 159 179 253 201 191 188 210 217 237 249 249 249 263 276 120 115 98 353 346 345 336 337 335 328 322 319 317 324 322 318 323 344 2 18 37 16 6 359 1 18 41
111 169 163 168 195 217 174 181 194 181 197 213 325 321 341 33 90 80 62 332 319 351 343 325 320 327 328 323 326 336 333 333 340 17 22 11 14 31 26 28 29 35 46 46
346 131 114 123 243 208 187 195 202 198 172 144 122 116 120 138 140 129 152 10 333 344 339 319 320 323 325 325 330 341 336 349 4 19 16 12 27 36 30 33 38 49 37 27
255 3 109 161 268 345 172 211 225 169 152 128 98 88 111 107 106 125 62 16 340 340 331 322 319 333 336 333 324 324 336 356 357 357 6 14 21 26 23 30 32 41 32 37
216 156 145 207 221 186 228 298 300 157 146 138 126 103 82 90 87 57 43 357 341 335 319 321 333 342 325 314 307 311 320 328 340 318 331 357 8 14 23 27 22 17 23 39
Height
1506 1511 1515 1509 1508 1508 1510 1511 1509 1496 1488 1491 1497 1499 1498 1497 1499 1499 1500 1502 1503 1503 1506 1510 1514 1517 1519 1520 1521 1523 1526 1528 1529 1529 1528 1529 1531 1533 1535 1536 1537 1536 1535 1534
1513 1513 1502 1500 1501 1502 1501 1503 1503 1496 1488 1493 1497 1496 1493 1495 1496 1496 1498 1501 1501 1503 1505 1509 1512 1514 1516 1519 1520 1522 1523 1524 1525 1526 1526 1527 1528 1530 1532 1532 1531 1530 1530 1528
1514 1503 1495 1497 1496 1498 1498 1504 1504 1505 1498 1497 1504 1511 1503 1495 1494 1494 1496 1498 1502 1504 1506 1509 1513 1516 1518 1519 1520 1521 1521 1523 1524 1526 1527 1527 1527 1526 1525 1526 1526 1525 1523 1522
1505 1494 1492 1493 1494 1495 1506 1500 1501 1504 1512 1520 1514 1533 1514 1500 1497 1495 1497 1501 1504 1507 1507 1508 1511 1513 1516 1518 1519 1520 1522 1523 1523 1524 1525 1525 1524 1522 1520 1521 1522 1523 1523 1522
1502 1495 1493 1495 1493 1491 1500 1496 1499 1502 1512 1520 1518 1528 1513 1498 1500 1498 1497 1502 1506 1507 1507 1509 1511 1512 1516 1517 1518 1520 1521 1522 1522 1523 1523 1524 1524 1523 1521 1520 1521 1520 1520 1519
1496 1492 1491 1490 1489 1489 1492 1498 1507 1514 1523 1534 1521 1526 1528 1515 1505 1504 1502 1504 1507 1508 1510 1512 1515 1516 1518 1519 1521 1522 1523 1524 1525 1526 1526 1526 1525 1523 1521 1518 1517 1515 1513 1510
1498 1494 1489 1487 1492 1494 1499 1514 1534 1537 1541 1537 1523 1526 1530 1514 1504 1505 1508 1509 1509 1511 1513 1514 1516 1517 1519 1520 1521 1522 1524 1525 1526 1527 1527 1526 1523 1520 1517 1515 1514 1510 1507 1503
1510 1519 1497 1492 1492 1500 1502 1515 1539 1550 1550 1543 1522 1529 1526 1512 1510 1511 1512 1513 1512 1514 1516 1517 1519 1520 1521 1522 1524 1525 1525 1525 1525 1525 1524 1523 1520 1515 1513 1510 1509 1506 1502 1497
1506 1506 1495 1493 1492 1495 1507 1509 1514 1530 1538 1548 1536 1524 1517 1517 1519 1517 1518 1518 1520 1522 1523 1524 1523 1522 1523 1524 1525 1526 1525 1523 1523 1523 1522 1523 1517 1513 1510 1507 1502 1500 1496 1489
1498 1507 1499 1494 1493 1496 1504 1506 1526 1526 1545 1554 1539 1534 1538 1531 1527 1526 1525 1526 1527 1527 1527 1527 1526 1525 1525 1525 1524 1523 1523 1521 1520 1520 1520 1517 1513 1509 1505 1501 1493 1490 1487 1481
1495 1506 1506 1500 1503 1506 1508 1513 1513 1521 1531 1546 1547 1549 1539 1539 1534 1532 1532 1531 1530 1529 1530 1529 1528 1527 1525 1523 1522 1522 1522 1520 1518 1518 1516 1514 1509 1503 1498 1492 1486 1484 1479 1473
1500 1512 1516 1510 1502 1501 1507 1515 1521 1533 1531 1531 1539 1560 1547 1542 1539 1535 1535 1534 1533 1532 1532 1531 1530 1529 1527 1525 1523 1521 1520 1518 1516 1514 1512 1508 1503 1497 1491 1486 1481 1475 1469 1465
1500 1514 1525 1520 1516 1512 1514 1519 1522 1527 1532 1533 1543 1563 1547 1543 1540 1538 1535 1534 1533 1534 1533 1532 1531 1529 1528 1525 1522 1520 1518 1515 1512 1509 1504 1499 1494 1487 1481 1477 1472 1467 1461 1456
1501 1516 1524 1531 1526 1523 1525 1524 1524 1529 1539 1535 1536 1551 1551 1549 1546 1542 1540 1538 1536 1536 1535 1533 1532 1530 1527 1524 1521 1518 1515 1511 1507 1502 1496 1490 1484 1479 1474 1470 1465 1460 1456 1452
1506 1518 1519 1521 1521 1522 1524 1525 1524 1526 1527 1535 1535 1544 1549 1547 1545 1543 1540 1538 1536 1535 1534 1531 1529 1526 1524 1520 1517 1514 1511 1506 1500 1495 1489 1483 1478 1473 1469 1465 1461 1457 1453 1449
1508 1517 1519 1524 1522 1525 1526 1523 1522 1522 1522 1526 1535 1544 1545 1544 1542 1540 1538 1535 1532 1532 1530 1527 1526 1523 1520 1516 1512 1508 1504 1498 1492 1487 1482 1478 1474 1469 1465 1461 1457 1453 1450 1446
1513 1521 1528 1533 1528 1528 1536 1528 1525 1531 1531 1532 1540 1545 1543 1542 1539 1536 1534 1531 1529 1526 1523 1522 1522 1520 1516 1511 1507 1502 1497 1491 1485 1481 1476 1473 1469 1464 1461 1457 1454 1451 1449 1445
1517 1524 1531 1536 1533 1544 1535 1527 1527 1534 1539 1539 1541 1542 1541 1539 1536 1533 1530 1527 1525 1523 1521 1520 1518 1515 1510 1506 1501 1496 1489 1483 1479 1476 1472 1468 1464 1460 1457 1454 1452 1450 1448 1446
1512 1522 1532 1540 1540 1534 1532 1531 1530 1532 1542 1539 1538 1538 1537 1535 1532 1529 1528 1525 1524 1522 1519 1516 1513 1509 1504 1499 1494 1489 1484 1479 1475 1472 1468 1464 1460 1458 1456 1454 1452 1451 1448 1446
1514 1519 1531 1540 1541 1541 1536 1531 1528 1530 1542 1536 1534 1533 1533 1531 1533 1529 1525 1523 1521 1519 1516 1513 1508 1503 1498 1494 1490 1486 1482 1478 1474 1470 1467 1464 1462 1460 1458 1456 1454 1452 1449 1446
1521 1525 1531 1537 1538 1536 1532 1529 1529 1540 1540 1532 1531 1530 1529 1528 1527 1524 1521 1519 1518 1516 1513 1509 1503 1499 1495 1491 1487 1484 1480 1477 1475 1473 1470 1467 1465 1462 1460 1458 1456 1454 1452 1449
1519 1525 1530 1534 1535 1543 1526 1528 1532 1531 1527 1528 1528 1527 1526 1524 1522 1520 1518 1516 1515 1511 1507 1504 1499 1495 1491 1488 1486 1484 1482 1480 1479 1476 1474 1471 1468 1465 1463 1460 1458 1456 1454 1452
1519 1520 1524 1527 1529 1524 1522 1524 1524 1524 1525 1526 1526 1524 1522 1520 1519 1519 1517 1515 1512 1507 1504 1500 1497 1492 1490 1488 1488 1487 1486 1484 1481 1479 1476 1474 1471 1468 1465 1463 1462 1460 1459 1457
1516 1515 1519 1522 1523 1521 1521 1521 1522 1522 1523 1523 1522 1521 1520 1517 1515 1513 1512 1510 1508 1503 1501 1497 1494 1492 1490 1490 1490 1490 1488 1487 1484 1482 1480 1477 1475 1472 1470 1468 1467 1466 1464 1462
1515 1515 1517 1519 1519 1519 1520 1520 1520 1520 1520 1520 1519 1519 1517 1514 1512 1510 1508 1505 1504 1501 1498 1496 1495 1493 1493 1492 1493 1493 1492 1490 1489 1487 1485 1483 1481 1478 1477 1475 1473 1471 1468 1466
1513 1515 1519 1519 1517 1518 1519 1518 1518 1518 1518 1517 1516 1516 1514 1512 1509 1507 1504 1503 1501 1499 1498 1497 1496 1497 1497 1496 1496 1496 1495 1494 1492 1491 1490 1488 1486 1485 1483 1481 1478 1476 1473 1469